| time (UTC) | temp F | wind direction | speed MPH | gust MPH | rain 1hr in | rain 24hr in | rain mn in | humidity % | barometer mb |
| 20260901233032 | 88 | 207 | 1.0 | 3.0 | 0.00 | 0.00 | 0.00 | 67 | 1016.5 |
| 20260901232503 | 88 | 183 | 1.0 | 5.0 | 0.00 | 0.00 | 0.00 | 67 | 1016.5 |
| 20260901232003 | 88 | 205 | 2.0 | 5.0 | 0.00 | 0.00 | 0.00 | 66 | 1016.5 |
| 20260901231511 | 89 | 232 | 2.0 | 5.0 | 0.00 | 0.00 | 0.00 | 64 | 1016.5 |
| 20260901231009 | 89 | 200 | 2.0 | 4.0 | 0.00 | 0.00 | 0.00 | 64 | 1016.5 |
| 20260901230507 | 90 | 190 | 2.0 | 4.0 | 0.00 | 0.00 | 0.00 | 64 | 1016.6 |
| 20260901230020 | 90 | 194 | 2.0 | 5.0 | 0.00 | 0.00 | 0.00 | 63 | 1016.6 |
| 20260901225508 | 90 | 196 | 2.0 | 5.0 | 0.00 | 0.00 | 0.00 | 63 | 1016.6 |
| 20260901225010 | 91 | 187 | 2.0 | 4.0 | 0.00 | 0.00 | 0.00 | 63 | 1016.5 |
| 20260901224525 | 91 | 202 | 2.0 | 4.0 | 0.00 | 0.00 | 0.00 | 62 | 1016.5 |
| 20260901224012 | 91 | 207 | 2.0 | 4.0 | 0.00 | 0.00 | 0.00 | 61 | 1016.5 |
| 20260901223514 | 91 | 194 | 2.0 | 4.0 | 0.00 | 0.00 | 0.00 | 61 | 1016.4 |
| 20260901223040 | 91 | 163 | 2.0 | 4.0 | 0.00 | 0.00 | 0.00 | 61 | 1016.4 |
| 20260901222515 | 92 | 213 | 2.0 | 6.0 | 0.00 | 0.00 | 0.00 | 61 | 1016.3 |
| 20260901222019 | 92 | 217 | 2.0 | 6.0 | 0.00 | 0.00 | 0.00 | 62 | 1016.4 |
| 20260901221508 | 92 | 203 | 1.0 | 5.0 | 0.00 | 0.00 | 0.00 | 59 | 1016.3 |
| 20260901221004 | 92 | 196 | 2.0 | 4.0 | 0.00 | 0.00 | 0.00 | 61 | 1016.3 |
| 20260901220507 | 92 | 214 | 2.0 | 5.0 | 0.00 | 0.00 | 0.00 | 59 | 1016.3 |
| 20260901220024 | 92 | 173 | 2.0 | 6.0 | 0.00 | 0.00 | 0.00 | 59 | 1016.3 |
| 20260901215507 | 92 | 194 | 2.0 | 6.0 | 0.00 | 0.00 | 0.00 | 58 | 1016.3 |
| 20260901215010 | 92 | 191 | 3.0 | 5.0 | 0.00 | 0.00 | 0.00 | 60 | 1016.3 |
| 20260901214522 | 93 | 182 | 2.0 | 5.0 | 0.00 | 0.00 | 0.00 | 59 | 1016.4 |
| 20260901214010 | 93 | 205 | 2.0 | 5.0 | 0.00 | 0.00 | 0.00 | 60 | 1016.4 |
| 20260901213512 | 93 | 194 | 2.0 | 8.0 | 0.00 | 0.00 | 0.00 | 60 | 1016.4 |
| 20260901213035 | 93 | 206 | 3.0 | 8.0 | 0.00 | 0.00 | 0.00 | 56 | 1016.4 |
| 20260901212512 | 93 | 226 | 2.0 | 6.0 | 0.00 | 0.00 | 0.00 | 57 | 1016.4 |
| 20260901212015 | 93 | 213 | 2.0 | 5.0 | 0.00 | 0.00 | 0.00 | 58 | 1016.4 |
| 20260901211531 | 93 | 191 | 2.0 | 6.0 | 0.00 | 0.00 | 0.00 | 58 | 1016.4 |
| 20260901211016 | 93 | 199 | 2.0 | 7.0 | 0.00 | 0.00 | 0.00 | 58 | 1016.4 |
| 20260901210504 | 93 | 202 | 4.0 | 7.0 | 0.00 | 0.00 | 0.00 | 57 | 1016.4 |
| 20260901210013 | 93 | 178 | 3.0 | 7.0 | 0.00 | 0.00 | 0.00 | 55 | 1016.4 |
| 20260901205508 | 93 | 205 | 1.0 | 8.0 | 0.00 | 0.00 | 0.00 | 57 | 1016.5 |
| 20260901205010 | 93 | 231 | 2.0 | 8.0 | 0.00 | 0.00 | 0.00 | 58 | 1016.5 |
| 20260901204518 | 93 | 166 | 1.0 | 8.0 | 0.00 | 0.00 | 0.00 | 56 | 1016.5 |
| 20260901204009 | 93 | 219 | 3.0 | 8.0 | 0.00 | 0.00 | 0.00 | 57 | 1016.6 |
| 20260901203514 | 93 | 244 | 4.0 | 8.0 | 0.00 | 0.00 | 0.00 | 56 | 1016.6 |
| 20260901203028 | 93 | 225 | 2.0 | 7.0 | 0.00 | 0.00 | 0.00 | 60 | 1016.6 |
| 20260901202512 | 93 | 167 | 2.0 | 8.0 | 0.00 | 0.00 | 0.00 | 59 | 1016.6 |
| 20260901202012 | 93 | 196 | 5.0 | 8.0 | 0.00 | 0.00 | 0.00 | 56 | 1016.5 |
| 20260901201531 | 92 | 231 | 2.0 | 9.0 | 0.00 | 0.00 | 0.00 | 58 | 1016.5 |
| 20260901201016 | 92 | 190 | 4.0 | 9.0 | 0.00 | 0.00 | 0.00 | 57 | 1016.6 |
| 20260901200516 | 92 | 199 | 4.0 | 9.0 | 0.00 | 0.00 | 0.00 | 57 | 1016.7 |
| 20260901200031 | 92 | 211 | 2.0 | 7.0 | 0.00 | 0.00 | 0.00 | 59 | 1016.7 |
| 20260901195506 | 92 | 218 | 3.0 | 8.0 | 0.00 | 0.00 | 0.00 | 58 | 1016.7 |
| 20260901195005 | 92 | 183 | 2.0 | 8.0 | 0.00 | 0.00 | 0.00 | 59 | 1016.7 |
| 20260901194521 | 92 | 160 | 4.0 | 9.0 | 0.00 | 0.00 | 0.00 | 58 | 1016.7 |
| 20260901194012 | 93 | 207 | 5.0 | 9.0 | 0.00 | 0.00 | 0.00 | 56 | 1016.7 |
| 20260901193508 | 93 | 184 | 4.0 | 8.0 | 0.00 | 0.00 | 0.00 | 58 | 1016.7 |
| 20260901193021 | 92 | 211 | 2.0 | 5.0 | 0.00 | 0.00 | 0.00 | 60 | 1016.7 |
| 20260901192513 | 92 | 226 | 3.0 | 9.0 | 0.00 | 0.00 | 0.00 | 61 | 1016.7 |
| 20260901192014 | 92 | 221 | 4.0 | 9.0 | 0.00 | 0.00 | 0.00 | 60 | 1016.7 |
| 20260901191530 | 92 | 210 | 3.0 | 7.0 | 0.00 | 0.00 | 0.00 | 60 | 1016.8 |
| 20260901191016 | 92 | 211 | 3.0 | 7.0 | 0.00 | 0.00 | 0.00 | 60 | 1016.8 |
| 20260901190517 | 92 | 285 | 3.0 | 6.0 | 0.00 | 0.00 | 0.00 | 61 | 1016.8 |
| 20260901190034 | 91 | 208 | 3.0 | 6.0 | 0.00 | 0.00 | 0.00 | 60 | 1016.9 |
| 20260901185519 | 91 | 200 | 4.0 | 8.0 | 0.00 | 0.00 | 0.00 | 60 | 1017.0 |
| 20260901185021 | 91 | 225 | 3.0 | 8.0 | 0.00 | 0.00 | 0.00 | 61 | 1017.0 |
| 20260901184522 | 91 | 173 | 3.0 | 8.0 | 0.00 | 0.00 | 0.00 | 62 | 1017.1 |
| 20260901184007 | 91 | 185 | 3.0 | 7.0 | 0.00 | 0.00 | 0.00 | 59 | 1017.0 |
| 20260901183509 | 91 | 199 | 2.0 | 9.0 | 0.00 | 0.00 | 0.00 | 62 | 1017.0 |
| 20260901183023 | 91 | 198 | 4.0 | 9.0 | 0.00 | 0.00 | 0.00 | 60 | 1017.0 |
| 20260901182511 | 91 | 221 | 5.0 | 9.0 | 0.00 | 0.00 | 0.00 | 62 | 1017.0 |
| 20260901182016 | 90 | 199 | 3.0 | 10.0 | 0.00 | 0.00 | 0.00 | 64 | 1017.0 |
| 20260901181533 | 90 | 242 | 5.0 | 10.0 | 0.00 | 0.00 | 0.00 | 61 | 1017.0 |
| 20260901181013 | 90 | 176 | 4.0 | 11.0 | 0.00 | 0.00 | 0.00 | 62 | 1017.1 |
| 20260901180514 | 90 | 187 | 7.0 | 11.0 | 0.00 | 0.00 | 0.00 | 60 | 1016.9 |
| 20260901180034 | 90 | 195 | 2.0 | 10.0 | 0.00 | 0.00 | 0.00 | 62 | 1017.0 |
| 20260901175518 | 90 | 222 | 4.0 | 10.0 | 0.00 | 0.00 | 0.00 | 61 | 1017.0 |
| 20260901175015 | 90 | 243 | 4.0 | 12.0 | 0.00 | 0.00 | 0.00 | 62 | 1017.0 |
| 20260901174533 | 90 | 216 | 4.0 | 11.0 | 0.00 | 0.00 | 0.00 | 63 | 1017.0 |
| 20260901174008 | 90 | 221 | 3.0 | 11.0 | 0.00 | 0.00 | 0.00 | 62 | 1017.0 |
| 20260901173511 | 90 | 198 | 2.0 | 9.0 | 0.00 | 0.00 | 0.00 | 63 | 1017.1 |
| 20260901173018 | 89 | 182 | 4.0 | 9.0 | 0.00 | 0.00 | 0.00 | 62 | 1017.1 |
| 20260901172510 | 89 | 176 | 3.0 | 7.0 | 0.00 | 0.00 | 0.00 | 62 | 1017.2 |
| 20260901172003 | 89 | 217 | 3.0 | 6.0 | 0.00 | 0.00 | 0.00 | 64 | 1017.3 |
| 20260901171505 | 89 | 197 | 3.0 | 9.0 | 0.00 | 0.00 | 0.00 | 64 | 1017.3 |
| 20260901171003 | 89 | 220 | 4.0 | 9.0 | 0.00 | 0.00 | 0.00 | 63 | 1017.3 |
| 20260901170504 | 89 | 180 | 5.0 | 9.0 | 0.00 | 0.00 | 0.00 | 64 | 1017.3 |
| 20260901170005 | 88 | 209 | 3.0 | 8.0 | 0.00 | 0.00 | 0.00 | 62 | 1017.4 |
| 20260901165502 | 88 | 202 | 4.0 | 10.0 | 0.00 | 0.00 | 0.00 | 63 | 1017.4 |
| 20260901165007 | 88 | 215 | 4.0 | 10.0 | 0.00 | 0.00 | 0.00 | 65 | 1017.5 |
| 20260901164509 | 88 | 211 | 4.0 | 8.0 | 0.00 | 0.00 | 0.00 | 66 | 1017.5 |
| 20260901164005 | 88 | 195 | 3.0 | 8.0 | 0.00 | 0.00 | 0.00 | 64 | 1017.6 |
| 20260901163507 | 88 | 206 | 4.0 | 8.0 | 0.00 | 0.00 | 0.00 | 63 | 1017.6 |
| 20260901163017 | 88 | 203 | 3.0 | 7.0 | 0.00 | 0.00 | 0.00 | 64 | 1017.6 |
| 20260901162509 | 87 | 207 | 3.0 | 9.0 | 0.00 | 0.00 | 0.00 | 67 | 1017.6 |
| 20260901162009 | 87 | 205 | 3.0 | 9.0 | 0.00 | 0.00 | 0.00 | 64 | 1017.6 |
| 20260901161527 | 87 | 205 | 3.0 | 8.0 | 0.00 | 0.00 | 0.00 | 65 | 1017.7 |
| 20260901161003 | 87 | 184 | 4.0 | 10.0 | 0.00 | 0.00 | 0.00 | 69 | 1017.7 |
| 20260901160502 | 87 | 221 | 3.0 | 10.0 | 0.00 | 0.00 | 0.00 | 65 | 1017.8 |
| 20260901160003 | 87 | 205 | 3.0 | 6.0 | 0.00 | 0.00 | 0.00 | 67 | 1017.8 |
| 20260901155504 | 87 | 225 | 3.0 | 6.0 | 0.00 | 0.00 | 0.00 | 67 | 1017.9 |
| 20260901155004 | 86 | 221 | 3.0 | 5.0 | 0.00 | 0.00 | 0.00 | 66 | 1018.0 |
| 20260901154509 | 86 | 315 | 2.0 | 6.0 | 0.00 | 0.00 | 0.00 | 67 | 1018.0 |
| 20260901154003 | 85 | 211 | 2.0 | 6.0 | 0.00 | 0.00 | 0.00 | 68 | 1018.1 |
| 20260901153502 | 85 | 196 | 3.0 | 6.0 | 0.00 | 0.00 | 0.00 | 68 | 1018.1 |
| 20260901153015 | 85 | 305 | 3.0 | 6.0 | 0.00 | 0.00 | 0.00 | 68 | 1018.0 |
| 20260901152508 | 85 | 241 | 2.0 | 6.0 | 0.00 | 0.00 | 0.00 | 67 | 1018.0 |
| 20260901152009 | 84 | 305 | 2.0 | 5.0 | 0.00 | 0.00 | 0.00 | 69 | 1018.0 |
| 20260901151519 | 84 | 202 | 3.0 | 9.0 | 0.00 | 0.00 | 0.00 | 70 | 1018.0 |
| 20260901151014 | 84 | 229 | 4.0 | 9.0 | 0.00 | 0.00 | 0.00 | 69 | 1018.0 |
| 20260901150513 | 84 | 188 | 3.0 | 8.0 | 0.00 | 0.00 | 0.00 | 70 | 1018.1 |
| 20260901150007 | 84 | 210 | 3.0 | 8.0 | 0.00 | 0.00 | 0.00 | 70 | 1018.1 |
| 20260901145503 | 84 | 213 | 3.0 | 10.0 | 0.00 | 0.00 | 0.00 | 70 | 1018.1 |
| 20260901145004 | 83 | 218 | 3.0 | 10.0 | 0.00 | 0.00 | 0.00 | 72 | 1018.1 |
| 20260901144507 | 83 | 208 | 3.0 | 7.0 | 0.00 | 0.00 | 0.00 | 71 | 1018.1 |
| 20260901144003 | 83 | 226 | 3.0 | 7.0 | 0.00 | 0.00 | 0.00 | 72 | 1018.1 |
| 20260901143504 | 83 | 215 | 3.0 | 8.0 | 0.00 | 0.00 | 0.00 | 73 | 1018.1 |
| 20260901143011 | 82 | 183 | 4.0 | 8.0 | 0.00 | 0.00 | 0.00 | 71 | 1018.1 |
| 20260901142507 | 82 | 222 | 2.0 | 5.0 | 0.00 | 0.00 | 0.00 | 73 | 1018.1 |
| 20260901142008 | 82 | 194 | 2.0 | 7.0 | 0.00 | 0.00 | 0.00 | 73 | 1018.1 |
| 20260901141532 | 81 | 243 | 3.0 | 7.0 | 0.00 | 0.00 | 0.00 | 73 | 1018.1 |
| 20260901141010 | 81 | 182 | 2.0 | 8.0 | 0.00 | 0.00 | 0.00 | 74 | 1018.1 |
| 20260901140511 | 81 | 191 | 4.0 | 8.0 | 0.00 | 0.00 | 0.00 | 74 | 1018.1 |
| 20260901140026 | 81 | 230 | 3.0 | 8.0 | 0.00 | 0.00 | 0.00 | 76 | 1018.1 |
| 20260901135513 | 80 | 198 | 3.0 | 8.0 | 0.00 | 0.00 | 0.00 | 75 | 1018.1 |
| 20260901135003 | 80 | 203 | 3.0 | 8.0 | 0.00 | 0.00 | 0.00 | 76 | 1018.0 |
| 20260901134503 | 79 | 126 | 3.0 | 6.0 | 0.00 | 0.00 | 0.00 | 77 | 1018.1 |
| 20260901134007 | 78 | 207 | 2.0 | 6.0 | 0.00 | 0.00 | 0.00 | 78 | 1018.1 |
| 20260901133506 | 78 | 174 | 3.0 | 8.0 | 0.00 | 0.00 | 0.00 | 78 | 1018.1 |
| 20260901133009 | 78 | 232 | 3.0 | 8.0 | 0.00 | 0.00 | 0.00 | 78 | 1018.2 |
| 20260901132506 | 77 | 213 | 3.0 | 9.0 | 0.00 | 0.00 | 0.00 | 79 | 1018.3 |
| 20260901132007 | 77 | 232 | 4.0 | 9.0 | 0.00 | 0.00 | 0.00 | 79 | 1018.3 |
| 20260901131516 | 77 | 218 | 1.0 | 7.0 | 0.00 | 0.00 | 0.00 | 79 | 1018.2 |
| 20260901131008 | 77 | 238 | 4.0 | 7.0 | 0.00 | 0.00 | 0.00 | 79 | 1018.2 |
| 20260901130510 | 77 | 217 | 3.0 | 9.0 | 0.00 | 0.00 | 0.00 | 80 | 1018.2 |
| 20260901130026 | 77 | 242 | 3.0 | 9.0 | 0.00 | 0.00 | 0.00 | 80 | 1018.3 |
| 20260901125511 | 76 | 201 | 1.0 | 4.0 | 0.00 | 0.00 | 0.00 | 81 | 1018.3 |
| 20260901125014 | 76 | 186 | 2.0 | 5.0 | 0.00 | 0.00 | 0.00 | 81 | 1018.2 |
| 20260901124527 | 76 | 194 | 2.0 | 5.0 | 0.00 | 0.00 | 0.00 | 81 | 1018.2 |
| 20260901124003 | 76 | 205 | 1.0 | 6.0 | 0.00 | 0.00 | 0.00 | 82 | 1018.2 |
| 20260901123504 | 76 | 213 | 2.0 | 6.0 | 0.00 | 0.00 | 0.00 | 81 | 1018.0 |
| 20260901123007 | 76 | 209 | 3.0 | 5.0 | 0.00 | 0.00 | 0.00 | 81 | 1018.1 |
| 20260901122504 | 75 | 218 | 2.0 | 5.0 | 0.00 | 0.00 | 0.00 | 82 | 1018.1 |
| 20260901122004 | 75 | 203 | 2.0 | 7.0 | 0.00 | 0.00 | 0.00 | 82 | 1018.0 |
| 20260901121512 | 75 | 203 | 2.0 | 7.0 | 0.00 | 0.00 | 0.00 | 82 | 1018.0 |
| 20260901121007 | 75 | 221 | 2.0 | 4.0 | 0.00 | 0.00 | 0.00 | 82 | 1018.0 |
| 20260901120507 | 76 | 213 | 3.0 | 5.0 | 0.00 | 0.00 | 0.00 | 81 | 1018.0 |
| 20260901120019 | 75 | 212 | 2.0 | 5.0 | 0.00 | 0.00 | 0.00 | 81 | 1018.0 |
| 20260901115511 | 75 | 214 | 2.0 | 5.0 | 0.00 | 0.00 | 0.00 | 81 | 1018.0 |
| 20260901115015 | 75 | 192 | 2.0 | 5.0 | 0.00 | 0.00 | 0.00 | 82 | 1018.0 |
| 20260901114527 | 75 | 209 | 2.0 | 5.0 | 0.00 | 0.00 | 0.00 | 82 | 1017.9 |
| 20260901114015 | 75 | 212 | 2.0 | 4.0 | 0.00 | 0.00 | 0.00 | 82 | 1017.9 |
| 20260901113514 | 75 | 207 | 2.0 | 3.0 | 0.00 | 0.00 | 0.00 | 82 | 1017.8 |
| 20260901113005 | 75 | 205 | 2.0 | 4.0 | 0.00 | 0.00 | 0.00 | 82 | 1017.8 |
| 20260901112505 | 75 | 211 | 2.0 | 4.0 | 0.00 | 0.00 | 0.00 | 82 | 1017.7 |
| 20260901112004 | 75 | 213 | 2.0 | 4.0 | 0.00 | 0.00 | 0.00 | 82 | 1017.7 |
| 20260901111510 | 75 | 219 | 3.0 | 4.0 | 0.00 | 0.00 | 0.00 | 81 | 1017.5 |
| 20260901111005 | 75 | 188 | 1.0 | 6.0 | 0.00 | 0.00 | 0.00 | 81 | 1017.5 |
| 20260901110506 | 75 | 216 | 2.0 | 6.0 | 0.00 | 0.00 | 0.00 | 81 | 1017.5 |
| 20260901110018 | 75 | 199 | 2.0 | 5.0 | 0.00 | 0.00 | 0.00 | 82 | 1017.4 |
| 20260901105509 | 75 | 182 | 1.0 | 4.0 | 0.00 | 0.00 | 0.00 | 82 | 1017.5 |
| 20260901105014 | 75 | 210 | 2.0 | 3.0 | 0.00 | 0.00 | 0.00 | 82 | 1017.4 |
| 20260901104524 | 75 | 221 | 1.0 | 5.0 | 0.00 | 0.00 | 0.00 | 82 | 1017.4 |
| 20260901104013 | 76 | 202 | 2.0 | 5.0 | 0.00 | 0.00 | 0.00 | 82 | 1017.3 |
| 20260901103513 | 75 | 199 | 3.0 | 4.0 | 0.00 | 0.00 | 0.00 | 82 | 1017.2 |
| 20260901103029 | 76 | 196 | 2.0 | 4.0 | 0.00 | 0.00 | 0.00 | 82 | 1017.2 |
| 20260901102519 | 76 | 209 | 1.0 | 4.0 | 0.00 | 0.00 | 0.00 | 82 | 1017.3 |
| 20260901102004 | 76 | 215 | 1.0 | 3.0 | 0.00 | 0.00 | 0.00 | 81 | 1017.3 |
| 20260901101508 | 76 | 232 | 1.0 | 3.0 | 0.00 | 0.00 | 0.00 | 81 | 1017.3 |
| 20260901101004 | 76 | 229 | 1.0 | 3.0 | 0.00 | 0.00 | 0.00 | 81 | 1017.3 |
| 20260901100504 | 76 | 217 | 1.0 | 3.0 | 0.00 | 0.00 | 0.00 | 81 | 1017.3 |
| 20260901100018 | 76 | 194 | 1.0 | 4.0 | 0.00 | 0.00 | 0.00 | 81 | 1017.2 |
| 20260901095509 | 76 | 205 | 2.0 | 4.0 | 0.00 | 0.00 | 0.00 | 81 | 1017.2 |
| 20260901095008 | 76 | 219 | 2.0 | 4.0 | 0.00 | 0.00 | 0.00 | 81 | 1017.1 |
| 20260901094522 | 76 | 213 | 2.0 | 4.0 | 0.00 | 0.00 | 0.00 | 81 | 1017.1 |
| 20260901094011 | 76 | 207 | 2.0 | 4.0 | 0.00 | 0.00 | 0.00 | 81 | 1017.1 |
| 20260901093511 | 76 | 200 | 2.0 | 4.0 | 0.00 | 0.00 | 0.00 | 81 | 1017.1 |
| 20260901093028 | 76 | 199 | 2.0 | 5.0 | 0.00 | 0.00 | 0.00 | 81 | 1017.1 |
| 20260901092512 | 76 | 234 | 2.0 | 5.0 | 0.00 | 0.00 | 0.00 | 81 | 1016.9 |
| 20260901092017 | 76 | 204 | 2.0 | 4.0 | 0.00 | 0.00 | 0.00 | 81 | 1017.0 |
| 20260901091530 | 76 | 207 | 1.0 | 4.0 | 0.00 | 0.00 | 0.00 | 81 | 1017.0 |
| 20260901091024 | 76 | 218 | 2.0 | 5.0 | 0.00 | 0.00 | 0.00 | 81 | 1016.8 |
| 20260901090503 | 76 | 207 | 2.0 | 5.0 | 0.00 | 0.00 | 0.00 | 81 | 1016.9 |
| 20260901090010 | 76 | 225 | 1.0 | 3.0 | 0.00 | 0.00 | 0.00 | 81 | 1017.0 |
| 20260901085505 | 76 | 212 | 2.0 | 5.0 | 0.00 | 0.00 | 0.00 | 81 | 1017.0 |
| 20260901085011 | 76 | 225 | 2.0 | 5.0 | 0.00 | 0.00 | 0.00 | 81 | 1016.8 |
| 20260901084517 | 76 | 196 | 2.0 | 6.0 | 0.00 | 0.00 | 0.00 | 81 | 1016.8 |
| 20260901084003 | 76 | 200 | 3.0 | 6.0 | 0.00 | 0.00 | 0.00 | 80 | 1016.8 |
| 20260901083502 | 76 | 214 | 3.0 | 6.0 | 0.00 | 0.00 | 0.00 | 81 | 1016.7 |
| 20260901083006 | 76 | 207 | 2.0 | 5.0 | 0.00 | 0.00 | 0.00 | 81 | 1016.7 |
| 20260901082504 | 76 | 194 | 3.0 | 7.0 | 0.00 | 0.00 | 0.00 | 80 | 1016.7 |
| 20260901082002 | 77 | 201 | 3.0 | 6.0 | 0.00 | 0.00 | 0.00 | 80 | 1016.7 |
| 20260901081506 | 76 | 201 | 3.0 | 6.0 | 0.00 | 0.00 | 0.00 | 80 | 1016.6 |
| 20260901081003 | 76 | 196 | 3.0 | 6.0 | 0.00 | 0.00 | 0.00 | 80 | 1016.6 |
| 20260901080504 | 76 | 208 | 3.0 | 6.0 | 0.00 | 0.00 | 0.00 | 80 | 1016.6 |
| 20260901080006 | 76 | 196 | 2.0 | 4.0 | 0.00 | 0.00 | 0.00 | 80 | 1016.7 |
| 20260901075504 | 76 | 205 | 2.0 | 4.0 | 0.00 | 0.00 | 0.00 | 80 | 1016.7 |
| 20260901075006 | 76 | 210 | 2.0 | 4.0 | 0.00 | 0.00 | 0.00 | 1016.7 | |
| 20260901074508 | 77 | 192 | 2.0 | 4.0 | 0.00 | 0.00 | 0.00 | 80 | 1016.7 |
| 20260901074003 | 77 | 215 | 2.0 | 4.0 | 0.00 | 0.00 | 0.00 | 80 | 1016.7 |
| 20260901073503 | 77 | 208 | 2.0 | 6.0 | 0.00 | 0.00 | 0.00 | 80 | 1016.7 |
| 20260901073012 | 77 | 211 | 3.0 | 6.0 | 0.00 | 0.00 | 0.00 | 80 | 1016.7 |
| 20260901072505 | 77 | 200 | 2.0 | 5.0 | 0.00 | 0.00 | 0.00 | 80 | 1016.7 |
| 20260901072002 | 77 | 213 | 2.0 | 5.0 | 0.00 | 0.00 | 0.00 | 80 | 1016.7 |
| 20260901071504 | 77 | 241 | 2.0 | 5.0 | 0.00 | 0.00 | 0.00 | 80 | 1016.7 |
| 20260901071003 | 77 | 211 | 3.0 | 5.0 | 0.00 | 0.00 | 0.00 | 80 | 1016.6 |
| 20260901070502 | 77 | 215 | 2.0 | 5.0 | 0.00 | 0.00 | 0.00 | 80 | 1016.6 |
| 20260901070006 | 77 | 215 | 2.0 | 5.0 | 0.00 | 0.00 | 0.00 | 80 | 1016.6 |
| 20260901065505 | 77 | 212 | 3.0 | 8.0 | 0.00 | 0.00 | 0.00 | 80 | 1016.6 |
| 20260901065002 | 77 | 219 | 3.0 | 8.0 | 0.00 | 0.00 | 0.00 | 79 | 1016.6 |
| 20260901064510 | 77 | 213 | 2.0 | 6.0 | 0.00 | 0.00 | 0.00 | 79 | 1016.6 |
| 20260901064003 | 77 | 201 | 3.0 | 6.0 | 0.00 | 0.00 | 0.00 | 79 | 1016.7 |
| 20260901063502 | 77 | 211 | 3.0 | 6.0 | 0.00 | 0.00 | 0.00 | 79 | 1016.7 |
| 20260901063011 | 77 | 211 | 3.0 | 6.0 | 0.00 | 0.00 | 0.00 | 79 | 1016.7 |
| 20260901062504 | 77 | 217 | 3.0 | 5.0 | 0.00 | 0.00 | 0.00 | 80 | 1016.7 |
| 20260901062006 | 77 | 201 | 2.0 | 4.0 | 0.00 | 0.00 | 0.00 | 79 | 1016.7 |
| 20260901061508 | 78 | 213 | 1.0 | 4.0 | 0.00 | 0.00 | 0.00 | 79 | 1016.7 |
| 20260901061004 | 78 | 202 | 1.0 | 5.0 | 0.00 | 0.00 | 0.00 | 79 | 1016.6 |
| 20260901060503 | 78 | 215 | 2.0 | 7.0 | 0.00 | 0.00 | 0.00 | 78 | 1016.6 |
| 20260901060009 | 78 | 204 | 3.0 | 7.0 | 0.00 | 0.00 | 0.00 | 78 | 1016.6 |
| 20260901055504 | 79 | 181 | 2.0 | 8.0 | 0.00 | 0.00 | 0.00 | 78 | 1016.6 |
| 20260901055004 | 79 | 192 | 3.0 | 8.0 | 0.00 | 0.00 | 0.00 | 78 | 1016.6 |
| 20260901054524 | 79 | 197 | 3.0 | 7.0 | 0.00 | 0.00 | 0.00 | 77 | 1016.6 |
| 20260901054005 | 79 | 202 | 3.0 | 8.0 | 0.00 | 0.00 | 0.00 | 77 | 1016.6 |
| 20260901053504 | 79 | 188 | 4.0 | 9.0 | 0.00 | 0.00 | 0.00 | 77 | 1016.6 |
| 20260901053010 | 79 | 195 | 5.0 | 9.0 | 0.00 | 0.00 | 0.00 | 77 | 1016.6 |
| 20260901052503 | 79 | 194 | 4.0 | 8.0 | 0.00 | 0.00 | 0.00 | 77 | 1016.6 |
| 20260901052004 | 79 | 234 | 3.0 | 7.0 | 0.00 | 0.00 | 0.00 | 78 | 1016.6 |
| 20260901051507 | 79 | 187 | 4.0 | 8.0 | 0.00 | 0.00 | 0.00 | 78 | 1016.5 |
| 20260901051011 | 79 | 234 | 3.0 | 13.0 | 0.00 | 0.00 | 0.00 | 78 | 1016.5 |
| 20260901050504 | 79 | 210 | 5.0 | 13.0 | 0.00 | 0.00 | 0.00 | 78 | 1016.4 |
| 20260901050010 | 78 | 179 | 4.0 | 8.0 | 0.00 | 0.00 | 0.00 | 79 | 1016.3 |
| 20260901045504 | 78 | 204 | 4.0 | 8.0 | 0.00 | 0.00 | 0.00 | 79 | 1016.3 |
| 20260901045003 | 78 | 212 | 4.0 | 9.0 | 0.00 | 0.00 | 0.00 | 79 | 1016.3 |
| 20260901044514 | 79 | 189 | 4.0 | 11.0 | 0.00 | 0.00 | 0.00 | 79 | 1016.3 |
| 20260901044004 | 79 | 200 | 6.0 | 11.0 | 0.00 | 0.00 | 0.00 | 78 | 1016.4 |
| 20260901043504 | 79 | 178 | 5.0 | 10.0 | 0.00 | 0.00 | 0.00 | 78 | 1016.3 |
| 20260901043011 | 79 | 220 | 5.0 | 10.0 | 0.00 | 0.00 | 0.00 | 78 | 1016.2 |
| 20260901042505 | 79 | 225 | 6.0 | 10.0 | 0.00 | 0.00 | 0.00 | 78 | 1016.1 |
| 20260901042004 | 79 | 221 | 4.0 | 11.0 | 0.00 | 0.00 | 0.00 | 78 | 1016.0 |
| 20260901041509 | 79 | 213 | 4.0 | 11.0 | 0.00 | 0.00 | 0.00 | 78 | 1016.1 |
| 20260901041002 | 79 | 221 | 5.0 | 10.0 | 0.00 | 0.00 | 0.00 | 78 | 1016.2 |
| 20260901040502 | 78 | 197 | 4.0 | 10.0 | 0.00 | 0.00 | 0.00 | 79 | 1016.3 |
| 20260901040007 | 78 | 195 | 3.0 | 7.0 | 0.00 | 0.00 | 0.00 | 80 | 1016.4 |
| 20260901035506 | 78 | 192 | 4.0 | 8.0 | 0.00 | 0.00 | 0.00 | 80 | 1016.5 |
| 20260901035004 | 78 | 200 | 4.0 | 8.0 | 0.00 | 0.00 | 0.00 | 80 | 1016.5 |
| 20260901034518 | 78 | 200 | 4.0 | 7.0 | 0.00 | 0.00 | 0.00 | 80 | 1016.7 |
| 20260901034003 | 78 | 188 | 1.0 | 3.0 | 0.00 | 0.00 | 0.00 | 80 | 1016.9 |
| 20260901033506 | 78 | 155 | 1.0 | 2.0 | 0.00 | 0.00 | 0.00 | 80 | 1017.1 |
| 20260901033014 | 78 | 202 | 1.0 | 2.0 | 0.00 | 0.00 | 0.00 | 80 | 1017.4 |
| 20260901032506 | 78 | 202 | 0.0 | 2.0 | 0.00 | 0.00 | 0.00 | 80 | 1017.5 |
| 20260901032007 | 78 | 203 | 0.0 | 2.0 | 0.00 | 0.00 | 0.00 | 80 | 1017.5 |
| 20260901031523 | 78 | 203 | 0.0 | 2.0 | 0.00 | 0.00 | 0.00 | 80 | 1017.7 |
| 20260901031004 | 78 | 203 | 0.0 | 2.0 | 0.00 | 0.00 | 0.00 | 80 | 1017.8 |
| 20260901030503 | 78 | 203 | 0.0 | 4.0 | 0.00 | 0.00 | 0.00 | 80 | 1017.8 |
| 20260901030012 | 78 | 199 | 2.0 | 4.0 | 0.00 | 0.00 | 0.00 | 81 | 1017.5 |
| 20260901025505 | 77 | 206 | 2.0 | 4.0 | 0.00 | 0.00 | 0.00 | 81 | 1017.4 |
| 20260901025009 | 78 | 207 | 2.0 | 5.0 | 0.00 | 0.00 | 0.00 | 81 | 1017.3 |
| 20260901024510 | 78 | 198 | 2.0 | 8.0 | 0.00 | 0.00 | 0.00 | 80 | 1017.2 |
| 20260901024006 | 78 | 203 | 3.0 | 8.0 | 0.00 | 0.00 | 0.00 | 79 | 1017.3 |
| 20260901023504 | 78 | 178 | 2.0 | 6.0 | 0.00 | 0.00 | 0.00 | 79 | 1017.3 |
| 20260901023019 | 78 | 166 | 1.0 | 3.0 | 0.00 | 0.00 | 0.00 | 79 | 1017.3 |
| 20260901022505 | 78 | 144 | 2.0 | 3.0 | 0.00 | 0.00 | 0.00 | 79 | 1017.5 |
| 20260901022008 | 78 | 146 | 2.0 | 3.0 | 0.00 | 0.00 | 0.00 | 79 | 1017.5 |
| 20260901021514 | 78 | 141 | 2.0 | 3.0 | 0.00 | 0.00 | 0.00 | 80 | 1017.6 |
| 20260901021007 | 78 | 147 | 1.0 | 3.0 | 0.00 | 0.00 | 0.00 | 80 | 1017.6 |
| 20260901020511 | 78 | 161 | 1.0 | 3.0 | 0.00 | 0.00 | 0.00 | 81 | 1017.5 |
| 20260901020014 | 77 | 167 | 1.0 | 3.0 | 0.00 | 0.00 | 0.00 | 81 | 1017.6 |
| 20260901015507 | 77 | 140 | 1.0 | 2.0 | 0.00 | 0.00 | 0.00 | 81 | 1017.6 |
| 20260901015012 | 76 | 202 | 0.0 | 2.0 | 0.00 | 0.00 | 0.00 | 82 | 1017.6 |
| 20260901014515 | 76 | 202 | 0.0 | 2.0 | 0.00 | 0.00 | 0.00 | 82 | 1017.6 |
| 20260901014006 | 77 | 204 | 0.0 | 3.0 | 0.00 | 0.00 | 0.00 | 80 | 1017.5 |
| 20260901013509 | 77 | 204 | 1.0 | 3.0 | 0.00 | 0.00 | 0.00 | 80 | 1017.5 |
| 20260901013033 | 78 | 187 | 0.0 | 3.0 | 0.00 | 0.00 | 0.00 | 79 | 1017.5 |
| 20260901012503 | 78 | 143 | 0.0 | 3.0 | 0.00 | 0.00 | 0.00 | 78 | 1017.5 |
| 20260901012007 | 78 | 142 | 1.0 | 3.0 | 0.00 | 0.00 | 0.00 | 78 | 1017.3 |
| 20260901011523 | 78 | 142 | 1.0 | 3.0 | 0.00 | 0.00 | 0.00 | 78 | 1017.3 |
| 20260901011006 | 78 | 146 | 1.0 | 2.0 | 0.00 | 0.00 | 0.00 | 78 | 1017.4 |
| 20260901010504 | 78 | 146 | 0.0 | 0.0 | 0.00 | 0.00 | 0.00 | 78 | 1017.4 |
| 20260901010015 | 79 | 146 | 0.0 | 2.0 | 0.00 | 0.00 | 0.00 | 79 | 1017.4 |
| 20260901005508 | 79 | 146 | 0.0 | 2.0 | 0.00 | 0.00 | 0.00 | 77 | 1017.3 |
| 20260901005006 | 79 | 146 | 1.0 | 2.0 | 0.00 | 0.00 | 0.00 | 77 | 1017.1 |
| 20260901004516 | 79 | 146 | 1.0 | 2.0 | 0.00 | 0.00 | 0.00 | 77 | 1017.1 |
| 20260901004008 | 79 | 146 | 1.0 | 2.0 | 0.00 | 0.00 | 0.00 | 77 | 1017.1 |
| 20260901003505 | 79 | 146 | 1.0 | 2.0 | 0.00 | 0.00 | 0.00 | 77 | 1017.1 |
| 20260901003015 | 79 | 146 | 2.0 | 2.0 | 0.00 | 0.00 | 0.00 | 77 | 1017.2 |
| 20260901002508 | 79 | 146 | 1.0 | 2.0 | 0.00 | 0.00 | 0.00 | 77 | 1017.2 |
| 20260901002008 | 80 | 146 | 2.0 | 2.0 | 0.00 | 0.00 | 0.00 | 77 | 1017.1 |
| 20260901001515 | 80 | 156 | 2.0 | 2.0 | 0.00 | 0.00 | 0.00 | 76 | 1017.0 |
| 20260901001008 | 81 | 162 | 1.0 | 2.0 | 0.00 | 0.00 | 0.00 | 75 | 1017.1 |
| 20260901000508 | 81 | 194 | 1.0 | 1.0 | 0.00 | 0.00 | 0.00 | 74 | 1017.0 |
| 20260901000018 | 81 | 194 | 1.0 | 2.0 | 0.00 | 0.00 | 0.00 | 73 | 1017.0 |
| 20260831235508 | 82 | 194 | 1.0 | 2.0 | 0.00 | 0.00 | 0.00 | 72 | 1016.8 |
| 20260831235007 | 82 | 194 | 1.0 | 1.0 | 0.00 | 0.00 | 0.00 | 72 | 1016.9 |
| 20260831234519 | 83 | 194 | 0.0 | 1.0 | 0.00 | 0.00 | 0.00 | 72 | 1017.0 |
| 20260831234008 | 83 | 194 | 0.0 | 2.0 | 0.00 | 0.00 | 0.00 | 71 | 1017.1 |
| 20260831233513 | 83 | 194 | 0.0 | 2.0 | 0.00 | 0.00 | 0.00 | 71 | 1016.9 |